Roanoke, VA

12:03 PM EDT on October 17, 2019 (GMT -0400)
Roanoke Regional-Woodrum

Weather History for KROA - August, 2019

Change the Weather History Date:

Sunday, August 18, 2019

  Actual Average Record
Temperature  
Mean Temperature 81 °F 76 °F  
Max Temperature 93 °F 86 °F 100 °F (1988)
Min Temperature 68 °F 65 °F 53 °F (1981)
Degree Days  
Heating Degree Days 0 0  
Month to date heating degree days 0 0  
Since 1 June heating degree days 0 11  
Since 1 July heating degree days 0 0  
Cooling Degree Days 16 10  
Month to date cooling degree days 249 199  
Year to date cooling degree days 1232 922  
Since 1 June cooling degree days 953 806  
Growing Degree Days 30 (Base 50)    
Moisture  
Dew Point 67 °F    
Average Humidity 64    
Maximum Humidity 90    
Minimum Humidity 38    
Precipitation  
Precipitation T in 0.10 in 4.60 in (1939)
Month to date precipitation 1.15 2.02  
Year to date precipitation 28.72 26.59  
Snow  
Snow 0.00 in - - ()
Month to date snowfall 0.0  
Since 1 June snowfall T  
Since 1 July snowfall T  
Snow Depth 0.00 in    
Sea Level Pressure  
Sea Level Pressure 30.01 in    
Wind  
Wind Speed 4 mph (WSW)    
Max Wind Speed 12 mph    
Max Gust Speed 14 mph    
Visibility 10 miles    
Events Rain    
T = Trace of Precipitation, MM = Missing Value Source: NWS Daily Summary

Daily Weather History Graph

Daily Weather History Graph

Search for Another Location

Airport or City:

Astronomy

Aug. 18, 2019 Rise Set
Actual Time 6:38 AM EDT 8:08 PM EDT
Civil Twilight 6:10 AM EDT 8:35 PM EDT
Nautical Twilight 5:37 AM EDT 9:08 PM EDT
Astronomical Twilight 5:02 AM EDT 9:43 PM EDT
Moon 10:05 PM EDT (8/18) 9:19 AM EDT (8/18)
Length of Visible Light 14h 24m
Length of Day
13h 29m
Waning Gibbous, 91% of the Moon is Illuminated
Aug 18
Waning Gibbous
Aug 23
Last Quarter
Aug 30
New
Sep 5
First Quarter
Sep 14
Full

Hourly Weather History & Observations

Time (EDT) Temp. Heat Index Dew Point Humidity Pressure Visibility Wind Dir Wind Speed Gust Speed Precip Events Conditions
12:54 AM 73.9 °F - 69.1 °F 85% 30.02 in 10.0 mi Calm Calm - N/A   Clear
1:54 AM 72.0 °F - 68.0 °F 87% 30.01 in 10.0 mi Calm Calm - N/A   Clear
2:54 AM 72.0 °F - 66.9 °F 84% 30.00 in 10.0 mi West 6.9 mph - N/A   Clear
3:54 AM 71.1 °F - 66.0 °F 84% 29.99 in 10.0 mi WNW 3.5 mph - N/A   Clear
4:54 AM 71.1 °F - 66.9 °F 87% 30.01 in 10.0 mi NNW 4.6 mph - N/A   Clear
5:54 AM 70.0 °F - 66.0 °F 87% 30.01 in 10.0 mi Calm Calm - N/A   Clear
6:54 AM 69.1 °F - 66.9 °F 93% 30.03 in 10.0 mi Calm Calm - N/A   Partly Cloudy
7:54 AM 72.0 °F - 66.9 °F 84% 30.04 in 10.0 mi Calm Calm - N/A   Clear
8:54 AM 78.1 °F - 69.1 °F 74% 30.03 in 10.0 mi Calm Calm - N/A   Clear
9:54 AM 80.1 °F 82.7 °F 68.0 °F 67% 30.05 in 10.0 mi Calm Calm - N/A   Clear
10:54 AM 84.0 °F 87.8 °F 69.1 °F 61% 30.05 in 10.0 mi Variable 3.5 mph - N/A   Clear
11:54 AM 88.0 °F 92.1 °F 69.1 °F 53% 30.05 in 10.0 mi Calm Calm - N/A   Clear
12:54 PM 91.0 °F 94.3 °F 66.9 °F 45% 30.03 in 10.0 mi East 10.4 mph - N/A   Scattered Clouds
1:54 PM 84.0 °F 87.0 °F 68.0 °F 58% 30.04 in 9.0 mi NW 10.4 mph - 0.00 in Rain Light Rain
2:54 PM 91.0 °F 94.3 °F 66.9 °F 45% 30.01 in 10.0 mi East 9.2 mph - 0.00 in   Scattered Clouds
3:54 PM 91.9 °F 94.5 °F 66.0 °F 42% 29.99 in 10.0 mi SE 10.4 mph - N/A   Partly Cloudy
4:54 PM 91.9 °F 93.3 °F 64.0 °F 39% 29.98 in 10.0 mi South 8.1 mph - N/A   Partly Cloudy
5:54 PM 91.9 °F 92.9 °F 63.0 °F 38% 29.97 in 10.0 mi South 5.8 mph - N/A   Partly Cloudy
6:54 PM 88.0 °F 89.3 °F 64.0 °F 45% 29.97 in 10.0 mi ESE 4.6 mph - N/A   Scattered Clouds
7:54 PM 84.9 °F 87.6 °F 66.9 °F 55% 29.98 in 10.0 mi West 4.6 mph - N/A   Partly Cloudy
8:54 PM 82.9 °F 85.4 °F 66.9 °F 58% 30.00 in 10.0 mi WSW 3.5 mph - N/A   Partly Cloudy
9:54 PM 81.0 °F 83.3 °F 66.9 °F 62% 30.00 in 10.0 mi SW 4.6 mph - N/A   Partly Cloudy
10:54 PM 75.9 °F - 68.0 °F 76% 30.01 in 10.0 mi West 4.6 mph - N/A   Clear
11:54 PM 75.0 °F - 68.0 °F 79% 30.01 in 10.0 mi NW 3.5 mph - N/A   Clear